Retour au catalogue

STARLINK-4655

ActifCommunicationsVLEO
NORAD 53613·PAYLOAD·🇺🇸 United States

Lancé Aug 28, 2022 depuis Cape Canaveral Space Force Station

Loading…

Prochains Passages (prochaines 24 heures)

TLE

FraisSource: CelesTrak SupGP

Époque: Sep 15, 2026, 02:39 UTC

1 53613C 22104AB  26258.11090278 -.00009245  00000+0 -26450-3 0  2587
2 53613  53.1576  93.1728 0001329  90.1786 263.5061 15.35402539    14

Suivez STARLINK-4655 en temps réel avec AllMySat

Download on the App Store